Miscellaneous Local Product
Issued by NWS Hastings, NE

Home | Current Version | Previous Version | Graphics & Text | Print | Product List | Glossary On
Versions: 1 2 3 4 5 6 7 8 9 10 11 12 13 14 15 16 17 18 19 20 21 22 23 24 25 26 27 28 29 30 31 32 33 34 35 36 37 38 39 40 41 42 43 44 45 46 47 48 49 50
000
AXUS43 KGID 152302
MISGRI

GID CWA HOURLY WEATHER ROUNDUP
NATIONAL WEATHER SERVICE HASTINGS NE
600 PM CDT MON SEP 15 2014

NOTE: "FAIR" INDICATES FEW OR NO CLOUDS BELOW 12,000 FEET WITH NO
SIGNIFICANT WEATHER AND/OR OBSTRUCTIONS TO VISIBILITY.

...SOUTH CENTRAL NEBRASKA...

CITY           SKY/WX    TMP DP  RH WIND       PRES   REMARKS
GRAND ISLAND   SUNNY     64  42  44 E8        30.26R
HASTINGS       SUNNY     64  42  44 NE7       30.25S
KEARNEY        SUNNY     64  43  45 NE6       30.27S
ORD            SUNNY     65  38  36 CALM      30.24S
YORK           SUNNY     63  45  51 NE6       30.25S
AURORA         SUNNY     63  41  43 NE7       30.26R
LEXINGTON      SUNNY     64  45  49 E7        30.26S
HOLDREGE       SUNNY     64  41  42 CALM      30.25F
HEBRON         SUNNY     67  42  41 NE8       30.23S

...NEBRASKA PANHANDLE...

CITY           SKY/WX    TMP DP  RH WIND       PRES   REMARKS
CHADRON        SUNNY     71  43  36 S14       30.16F
ALLIANCE       SUNNY     66  43  43 S16       30.22F
SCOTTSBLUFF    SUNNY     72  45  37 SE17      30.19F
SIDNEY         SUNNY     67  43  41 S16       30.25F

...WESTERN AND NORTH CENTRAL NEBRASKA...

CITY           SKY/WX    TMP DP  RH WIND       PRES   REMARKS
VALENTINE      SUNNY     66  35  31 SE9       30.23F
AINSWORTH      SUNNY     62  36  38 CALM      30.25S
ONEILL         SUNNY     62  41  45 CALM      30.25F
BROKEN BOW     SUNNY     66  39  37 CALM      30.25S
IMPERIAL       SUNNY     67  41  38 SE6       30.25F
NORTH PLATTE   SUNNY     66  42  41 VRB6      30.25F
MCCOOK         SUNNY     68  42  38 E6        30.25F

...EASTERN NEBRASKA...

CITY           SKY/WX    TMP DP  RH WIND       PRES   REMARKS
NORFOLK        SUNNY     63  41  44 N7        30.25S
SO SIOUX CITY  MOSUNNY   63  41  44 N6        30.24S
TEKAMAH        PTSUNNY   63  44  50 NE13      30.24R
ALBION         SUNNY     61  40  45 E5        30.25S
OMAHA EPPLEY   PTSUNNY   62  45  53 N6        30.24S
OFFUTT AFB     CLOUDY    61  48  62 N7        30.24R
MILLARD        PTSUNNY   62  45  53 NE5       30.24R
LINCOLN        SUNNY     64  44  48 N10       30.25R
NEBRASKA CITY  SUNNY     62  40  43 N12       30.23R
BEATRICE       SUNNY     65  46  49 N14       30.23R
FALLS CITY     MOSUNNY   67  50  54 N12G21    30.20R

...NORTHERN KANSAS...

CITY           SKY/WX    TMP DP  RH WIND       PRES   REMARKS
GOODLAND       SUNNY     67  49  52 E6        30.27F
HILL CITY      SUNNY     72  43  35 NE12G18   30.24S
NORTON         CLEAR     68  36  30 NE8       30.24S
PHILLIPSBURG   SUNNY     72  39  30 NE7       30.24S
SMITH CENTER   SUNNY     68  43  40 NE9       30.23S
BELOIT         SUNNY     72  45  37 N9        30.21R
HAYS           SUNNY     70  52  52 NE10      30.23R
RUSSELL        SUNNY     71  52  50 NE13      30.20R
CONCORDIA      SUNNY     69  49  48 NE12      30.21S
SALINA         CLOUDY    72  53  51 NE13      30.18S
TOPEKA         MOSUNNY   70  56  61 N10       30.17R



USA.gov is the U.S. government's official web portal to all federal, state and local government web resources and services.